Waupaca, WI

6:19 AM CDT on April 27, 2017 (GMT -0500)
Waupaca Municipal

Weather History for KPCZ - October, 2012

Change the Weather History Date:

Tuesday, October 30, 2012

  Actual Average Record
Temperature  
Mean Temperature 40 °F -  
Max Temperature 46 °F 53 °F 74 °F (1950)
Min Temperature 33 °F 33 °F 15 °F (1988)
Degree Days  
Heating Degree Days 26    
Moisture  
Dew Point 24 °F    
Average Humidity 57    
Maximum Humidity 75    
Minimum Humidity 32    
Precipitation  
Precipitation 0.00 in - - ()
Sea Level Pressure  
Sea Level Pressure 30.00 in    
Wind  
Wind Speed 10 mph (NNW)    
Max Wind Speed 21 mph    
Max Gust Speed 26 mph    
Visibility 10 miles    
Events      
Averages and records for this station are not official NWS values.
T = Trace of Precipitation, MM = Missing Value Source: NWS Daily Summary

Daily Weather History Graph

Daily Weather History Graph

Search for Another Location

Airport or City:

Trip Planner

Search our weather history database for the weather conditions in past years. The results will help you decide how hot, cold, wet, or windy it might be!

Date:

Astronomy

Oct. 30, 2012 Rise Set
Actual Time 7:31 AM CDT 5:47 PM CDT
Civil Twilight 7:01 AM CDT 6:17 PM CDT
Nautical Twilight 6:26 AM CDT 6:51 PM CDT
Astronomical Twilight 5:53 AM CDT 7:25 PM CDT
Moon 6:13 PM CDT (10/30) 8:20 AM CDT (10/30)
Length of Visible Light 11h 16m
Length of Day
10h 16m
Full, 99% of the Moon is Illuminated
Oct 30
Full
Nov 6
Last Quarter
Nov 13
New
Nov 20
First Quarter
Nov 28
Full

Hourly Weather History & Observations

Time (CDT) Temp. Windchill Dew Point Humidity Pressure Visibility Wind Dir Wind Speed Gust Speed Precip Events Conditions
12:15 AM 37.4 °F 32.8 °F 26.6 °F 65% 30.18 in 10.0 mi North 5.8 mph - N/A   Clear
12:35 AM 37.4 °F 32.1 °F 26.6 °F 65% 30.17 in 10.0 mi NNW 6.9 mph - N/A   Clear
12:55 AM 37.4 °F 32.1 °F 26.6 °F 65% 30.17 in 10.0 mi North 6.9 mph - N/A   Clear
1:15 AM 35.6 °F 29.9 °F 26.6 °F 70% 30.16 in 10.0 mi NNW 6.9 mph - N/A   Clear
1:35 AM 35.6 °F 29.9 °F 26.6 °F 70% 30.16 in 10.0 mi NNW 6.9 mph - N/A   Clear
1:55 AM 35.6 °F 29.2 °F 26.6 °F 70% 30.16 in 10.0 mi NNW 8.1 mph - N/A   Clear
2:15 AM 35.6 °F 29.2 °F 26.6 °F 70% 30.15 in 10.0 mi North 8.1 mph - N/A   Clear
2:35 AM 35.6 °F 29.2 °F 28.4 °F 75% 30.14 in 10.0 mi NNW 8.1 mph - N/A   Clear
2:55 AM 35.6 °F 29.2 °F 28.4 °F 75% 30.13 in 10.0 mi NNW 8.1 mph - N/A   Clear
3:35 AM 35.6 °F 29.2 °F 28.4 °F 75% 30.12 in 10.0 mi NW 8.1 mph - N/A   Clear
3:55 AM 35.6 °F 29.2 °F 28.4 °F 75% 30.11 in 10.0 mi NNW 8.1 mph - N/A   Clear
4:15 AM 35.6 °F 27.5 °F 28.4 °F 75% 30.11 in 10.0 mi NNW 11.5 mph - N/A   Clear
4:35 AM 35.6 °F 28.0 °F 28.4 °F 75% 30.10 in 10.0 mi NNW 10.4 mph - N/A   Clear
4:55 AM 35.6 °F 27.5 °F 28.4 °F 75% 30.10 in 10.0 mi NNW 11.5 mph - N/A   Clear
5:15 AM 35.6 °F 28.0 °F 28.4 °F 75% 30.09 in 10.0 mi NNW 10.4 mph 16.1 mph N/A   Clear
5:35 AM 35.6 °F 28.0 °F 28.4 °F 75% 30.09 in 10.0 mi NNW 10.4 mph 16.1 mph N/A   Clear
5:55 AM 35.6 °F 28.0 °F 28.4 °F 75% 30.08 in 10.0 mi NNW 10.4 mph - N/A   Clear
6:15 AM 35.6 °F 29.2 °F 28.4 °F 75% 30.08 in 10.0 mi NNW 8.1 mph - N/A   Clear
6:35 AM 35.6 °F 28.6 °F 28.4 °F 75% 30.07 in 10.0 mi NNW 9.2 mph - N/A   Clear
6:55 AM 35.6 °F 28.6 °F 28.4 °F 75% 30.06 in 10.0 mi NNW 9.2 mph - N/A   Clear
7:15 AM 35.6 °F 28.0 °F 28.4 °F 75% 30.05 in 10.0 mi NNW 10.4 mph 16.1 mph N/A   Clear
7:35 AM 35.6 °F 28.6 °F 28.4 °F 75% 30.05 in 10.0 mi NNW 9.2 mph - N/A   Clear
7:55 AM 35.6 °F 28.0 °F 26.6 °F 70% 30.05 in 10.0 mi North 10.4 mph - N/A   Clear
8:35 AM 35.6 °F 27.5 °F 26.6 °F 70% 30.04 in 10.0 mi North 11.5 mph 16.1 mph N/A   Clear
8:55 AM 35.6 °F 27.5 °F 26.6 °F 70% 30.03 in 10.0 mi NNW 11.5 mph 17.3 mph N/A   Clear
9:15 AM 37.4 °F 28.9 °F 24.8 °F 60% 30.03 in 10.0 mi North 13.8 mph - N/A   Clear
9:35 AM 37.4 °F 29.3 °F 23.0 °F 56% 30.02 in 10.0 mi North 12.7 mph 17.3 mph N/A   Clear
9:55 AM 39.2 °F 30.8 °F 23.0 °F 52% 30.01 in 10.0 mi North 15.0 mph 23.0 mph N/A   Clear
10:35 AM 41.0 °F 33.1 °F 21.2 °F 45% 30.00 in 10.0 mi NNW 15.0 mph 25.3 mph N/A   Clear
10:55 AM 41.0 °F 32.5 °F 21.2 °F 45% 29.98 in 10.0 mi North 17.3 mph 24.2 mph N/A   Clear
11:15 AM 41.0 °F 31.6 °F 21.2 °F 45% 29.98 in 10.0 mi North 20.7 mph 26.5 mph N/A   Clear
11:55 AM 44.6 °F 36.6 °F 21.2 °F 39% 29.97 in 10.0 mi North 19.6 mph 25.3 mph N/A   Clear
12:15 PM 44.6 °F 37.2 °F 21.2 °F 39% 29.96 in 10.0 mi NNW 17.3 mph 26.5 mph N/A   Clear
12:35 PM 44.6 °F 36.9 °F 19.4 °F 37% 29.95 in 10.0 mi NNW 18.4 mph 26.5 mph N/A   Clear
12:55 PM 44.6 °F 37.4 °F 21.2 °F 39% 29.95 in 10.0 mi NNW 16.1 mph 23.0 mph N/A   Clear
1:15 PM 44.6 °F 37.2 °F 21.2 °F 39% 29.94 in 10.0 mi NNW 17.3 mph 24.2 mph N/A   Clear
1:35 PM 44.6 °F 37.8 °F 19.4 °F 37% 29.93 in 10.0 mi NNW 15.0 mph 26.5 mph N/A   Clear
1:55 PM 46.4 °F 39.5 °F 21.2 °F 37% 29.92 in 10.0 mi NW 17.3 mph 25.3 mph N/A   Clear
2:15 PM 46.4 °F 39.0 °F 19.4 °F 34% 29.91 in 10.0 mi North 19.6 mph 26.5 mph N/A   Clear
2:35 PM 46.4 °F 39.0 °F 17.6 °F 32% 29.90 in 10.0 mi North 19.6 mph 24.2 mph N/A   Clear
2:55 PM 46.4 °F 39.8 °F 19.4 °F 34% 29.90 in 10.0 mi North 16.1 mph 25.3 mph N/A   Clear
3:15 PM 44.6 °F 37.2 °F 19.4 °F 37% 29.90 in 10.0 mi North 17.3 mph - N/A   Clear
3:35 PM 44.6 °F 36.9 °F 21.2 °F 39% 29.90 in 10.0 mi NW 18.4 mph 24.2 mph N/A   Clear
3:55 PM 44.6 °F 37.8 °F 19.4 °F 37% 29.90 in 10.0 mi NNW 15.0 mph 25.3 mph N/A   Clear
4:35 PM 42.8 °F 36.2 °F 19.4 °F 39% 29.91 in 10.0 mi NNW 12.7 mph - N/A   Clear
4:55 PM 42.8 °F 36.2 °F 17.6 °F 36% 29.91 in 10.0 mi NNW 12.7 mph 21.9 mph N/A   Clear
5:15 PM 42.8 °F 36.6 °F 17.6 °F 36% 29.91 in 10.0 mi NNW 11.5 mph 16.1 mph N/A   Clear
5:35 PM 42.8 °F 36.2 °F 15.8 °F 34% 29.91 in 10.0 mi North 12.7 mph 18.4 mph N/A   Clear
6:15 PM 41.0 °F 33.5 °F 17.6 °F 39% 29.91 in 10.0 mi NNW 13.8 mph 23.0 mph N/A   Clear
6:35 PM 41.0 °F 34.7 °F 17.6 °F 39% 29.92 in 10.0 mi NNW 10.4 mph - N/A   Clear
7:15 PM 39.2 °F 30.2 °F 19.4 °F 45% 29.92 in 10.0 mi NNW 17.3 mph 21.9 mph N/A   Clear
7:35 PM 37.4 °F 30.3 °F 21.2 °F 52% 29.93 in 10.0 mi NNW 10.4 mph 19.6 mph N/A   Clear
7:55 PM 37.4 °F 29.3 °F 21.2 °F 52% 29.93 in 10.0 mi NNW 12.7 mph 21.9 mph N/A   Clear
8:15 PM 37.4 °F 30.3 °F 21.2 °F 52% 29.93 in 10.0 mi NNW 10.4 mph 23.0 mph N/A   Clear
8:35 PM 35.6 °F 27.1 °F 23.0 °F 60% 29.93 in 10.0 mi NNW 12.7 mph 21.9 mph N/A   Clear
8:55 PM 35.6 °F 27.5 °F 23.0 °F 60% 29.93 in 10.0 mi North 11.5 mph 17.3 mph N/A   Clear
9:15 PM 35.6 °F 27.5 °F 23.0 °F 60% 29.93 in 10.0 mi NNW 11.5 mph 20.7 mph N/A   Clear
9:35 PM 35.6 °F 28.0 °F 23.0 °F 60% 29.93 in 10.0 mi NNW 10.4 mph 16.1 mph N/A   Clear
9:55 PM 35.6 °F 26.6 °F 23.0 °F 60% 29.92 in 10.0 mi NNW 13.8 mph - N/A   Clear
10:15 PM 33.8 °F 26.4 °F 23.0 °F 65% 29.91 in 10.0 mi NNW 9.2 mph 17.3 mph N/A   Clear
10:35 PM 33.8 °F 25.8 °F 23.0 °F 65% 29.90 in 10.0 mi NNW 10.4 mph 19.6 mph N/A   Clear
10:55 PM 33.8 °F 27.0 °F 23.0 °F 65% 29.89 in 10.0 mi NNW 8.1 mph - N/A   Clear
11:15 PM 33.8 °F 26.4 °F 23.0 °F 65% 29.89 in 10.0 mi NNW 9.2 mph - N/A   Clear
11:35 PM 33.8 °F 27.0 °F 23.0 °F 65% 29.89 in 10.0 mi NNW 8.1 mph - N/A   Clear
11:55 PM 33.8 °F 26.4 °F 23.0 °F 65% 29.89 in 10.0 mi NNW 9.2 mph - N/A   Clear